| time (UTC) | temp F | wind direction | speed MPH | gust MPH | rain 1hr in | rain 24hr in | rain mn in | humidity % | barometer mb |
| 20260504171341 | 69 | 94 | 2.0 | 5.0 | 0.00 | 0.00 | 0.18 | 55 | 1016.6 |
| 20260504170839 | 69 | 244 | 2.0 | 6.0 | 0.00 | 0.00 | 0.18 | 55 | 1017.3 |
| 20260504170341 | 69 | 248 | 2.0 | 4.0 | 0.00 | 0.00 | 0.18 | 56 | 1016.9 |
| 20260504160340 | 66 | 230 | 3.0 | 5.0 | 0.00 | 0.00 | 0.18 | 66 | 1018.3 |
| 20260504150840 | 59 | 86 | 2.0 | 3.0 | 0.00 | 0.00 | 0.18 | 83 | 1019.0 |
| 20260504150341 | 58 | 141 | 0.0 | 5.0 | 0.00 | 0.00 | 0.18 | 83 | 1019.0 |
| 20260504140840 | 52 | 92 | 2.0 | 4.0 | 0.00 | 0.00 | 0.18 | 97 | 1019.6 |
| 20260504140340 | 52 | 93 | 3.0 | 3.0 | 0.00 | 0.00 | 0.18 | 97 | 1019.6 |
| 20260504130341 | 48 | 80 | 0.0 | 4.0 | 0.19 | 0.00 | 0.17 | 96 | 1020.3 |
| 20260504110340 | 42 | 138 | 2.0 | 3.0 | 0.00 | 0.00 | 0.00 | 93 | 1018.6 |
| 20260504100340 | 43 | 89 | 0.0 | 5.0 | 0.00 | 0.00 | 0.00 | 91 | 1017.9 |
| 20260504081840 | 42 | 300 | 0.0 | 3.0 | 0.00 | 0.00 | 0.00 | 89 | 1018.6 |
| 20260504081340 | 42 | 76 | 3.0 | 5.0 | 0.00 | 0.00 | 0.00 | 90 | 1018.6 |
| 20260504080840 | 42 | 243 | 2.0 | 4.0 | 0.00 | 0.00 | 0.00 | 90 | 1018.6 |
| 20260504080339 | 42 | 119 | 0.0 | 3.0 | 0.00 | 0.00 | 0.00 | 89 | 1018.3 |
| 20260504070341 | 41 | 269 | 0.0 | 5.0 | 0.00 | 0.00 | 0.00 | 88 | 1019.0 |
| 20260504050340 | 43 | 269 | 0.0 | 1.0 | 0.00 | 0.00 | 0.00 | 81 | 1019.3 |
| 20260504045839 | 43 | 107 | 0.0 | 0.0 | 0.00 | 0.00 | 0.00 | 80 | 1019.3 |
| 20260504045340 | 43 | 224 | 0.0 | 1.0 | 0.00 | 0.00 | 0.00 | 79 | 1019.6 |
| 20260504044839 | 43 | 99 | 0.0 | 2.0 | 0.00 | 0.00 | 0.00 | 81 | 1019.3 |
| 20260504044339 | 43 | 245 | 1.0 | 1.0 | 0.00 | 0.00 | 0.00 | 80 | 1019.3 |
| 20260504043840 | 43 | 39 | 0.0 | 0.0 | 0.00 | 0.00 | 0.00 | 80 | 1019.6 |
| 20260504043340 | 43 | 78 | 0.0 | 1.0 | 0.00 | 0.00 | 0.00 | 81 | 1019.3 |
| 20260504042839 | 43 | 224 | 0.0 | 0.0 | 0.00 | 0.00 | 0.00 | 80 | 1019.3 |
| 20260504042340 | 43 | 249 | 0.0 | 1.0 | 0.00 | 0.00 | 0.00 | 80 | 1019.3 |
| 20260504041839 | 43 | 221 | 0.0 | 2.0 | 0.00 | 0.00 | 0.00 | 79 | 1019.3 |
| 20260504041340 | 43 | 235 | 0.0 | 0.0 | 0.00 | 0.00 | 0.00 | 79 | 1019.0 |
| 20260504040840 | 43 | 81 | 0.0 | 1.0 | 0.00 | 0.00 | 0.00 | 78 | 1019.0 |
| 20260504040340 | 43 | 76 | 0.0 | 0.0 | 0.00 | 0.00 | 0.00 | 78 | 1018.6 |
| 20260504035839 | 43 | 147 | 0.0 | 0.0 | 0.00 | 0.00 | 0.00 | 78 | 1019.0 |
| 20260504035342 | 43 | 50 | 0.0 | 2.0 | 0.00 | 0.00 | 0.00 | 78 | 1019.0 |
| 20260504034839 | 43 | 117 | 0.0 | 0.0 | 0.00 | 0.00 | 0.00 | 78 | 1019.0 |
| 20260504034340 | 43 | 129 | 0.0 | 0.0 | 0.00 | 0.00 | 0.00 | 78 | 1019.0 |
| 20260504033840 | 43 | 76 | 0.0 | 0.0 | 0.00 | 0.00 | 0.00 | 78 | 1019.0 |
| 20260504032853 | 43 | 229 | 0.0 | 1.0 | 0.00 | 0.00 | 0.00 | 80 | 1018.6 |
| 20260504032339 | 42 | 32 | 0.0 | 0.0 | 0.00 | 0.00 | 0.00 | 80 | 1018.6 |
| 20260504031839 | 42 | 234 | 0.0 | 1.0 | 0.00 | 0.00 | 0.00 | 79 | 1019.0 |
| 20260504031339 | 42 | 136 | 0.0 | 0.0 | 0.00 | 0.00 | 0.00 | 80 | 1018.6 |
| 20260504030839 | 43 | 157 | 0.0 | 0.0 | 0.00 | 0.00 | 0.00 | 79 | 1019.0 |
| 20260504030339 | 43 | 185 | 0.0 | 0.0 | 0.00 | 0.00 | 0.00 | 79 | 1019.0 |
| 20260504025840 | 43 | 217 | 0.0 | 0.0 | 0.00 | 0.00 | 0.00 | 79 | 1019.0 |
| 20260504025340 | 43 | 229 | 0.0 | 0.0 | 0.00 | 0.00 | 0.00 | 77 | 1019.0 |
| 20260504024840 | 43 | 141 | 0.0 | 0.0 | 0.00 | 0.00 | 0.00 | 77 | 1019.0 |
| 20260504024339 | 43 | 129 | 0.0 | 1.0 | 0.00 | 0.00 | 0.00 | 78 | 1019.0 |
| 20260504023839 | 44 | 76 | 0.0 | 1.0 | 0.00 | 0.00 | 0.00 | 78 | 1018.6 |
| 20260504023340 | 44 | 230 | 0.0 | 1.0 | 0.00 | 0.00 | 0.00 | 74 | 1018.6 |
| 20260504022840 | 44 | 76 | 0.0 | 0.0 | 0.00 | 0.00 | 0.00 | 76 | 1018.6 |
| 20260504022339 | 44 | 89 | 0.0 | 0.0 | 0.00 | 0.00 | 0.00 | 76 | 1018.6 |
| 20260504021840 | 44 | 130 | 0.0 | 0.0 | 0.00 | 0.00 | 0.00 | 75 | 1018.3 |
| 20260504021339 | 44 | 224 | 0.0 | 1.0 | 0.00 | 0.00 | 0.00 | 73 | 1018.6 |
| 20260504020839 | 45 | 124 | 0.0 | 1.0 | 0.00 | 0.00 | 0.00 | 75 | 1018.6 |
| 20260504020340 | 45 | 37 | 0.0 | 2.0 | 0.00 | 0.00 | 0.00 | 74 | 1018.6 |
| 20260504015840 | 45 | 249 | 0.0 | 0.0 | 0.00 | 0.00 | 0.00 | 71 | 1018.6 |
| 20260504015339 | 45 | 49 | 0.0 | 0.0 | 0.00 | 0.00 | 0.00 | 73 | 1018.6 |
| 20260504014839 | 45 | 139 | 0.0 | 0.0 | 0.00 | 0.00 | 0.00 | 73 | 1018.6 |
| 20260504014339 | 46 | 97 | 0.0 | 1.0 | 0.00 | 0.00 | 0.00 | 74 | 1018.6 |
| 20260504013840 | 46 | 246 | 0.0 | 0.0 | 0.00 | 0.00 | 0.00 | 73 | 1018.3 |
| 20260504013340 | 46 | 236 | 1.0 | 2.0 | 0.00 | 0.00 | 0.00 | 71 | 1018.3 |
| 20260504012839 | 46 | 45 | 1.0 | 2.0 | 0.00 | 0.00 | 0.00 | 72 | 1017.9 |
| 20260504012339 | 46 | 62 | 0.0 | 1.0 | 0.00 | 0.00 | 0.00 | 73 | 1018.3 |
| 20260504011839 | 47 | 243 | 0.0 | 1.0 | 0.00 | 0.00 | 0.00 | 71 | 1017.9 |
| 20260504011340 | 47 | 38 | 0.0 | 0.0 | 0.00 | 0.00 | 0.00 | 71 | 1018.3 |
| 20260504010840 | 47 | 42 | 0.0 | 2.0 | 0.00 | 0.00 | 0.00 | 72 | 1018.3 |
| 20260504010339 | 48 | 230 | 0.0 | 1.0 | 0.00 | 0.00 | 0.00 | 71 | 1018.3 |
| 20260504005840 | 48 | 82 | 0.0 | 1.0 | 0.00 | 0.00 | 0.00 | 69 | 1017.9 |
| 20260504005340 | 48 | 94 | 1.0 | 1.0 | 0.00 | 0.00 | 0.00 | 70 | 1018.3 |
| 20260504004839 | 48 | 263 | 0.0 | 1.0 | 0.00 | 0.00 | 0.00 | 67 | 1018.6 |
| 20260504004339 | 49 | 76 | 0.0 | 0.0 | 0.00 | 0.00 | 0.00 | 73 | 1017.9 |
| 20260504003839 | 49 | 108 | 0.0 | 0.0 | 0.00 | 0.00 | 0.00 | 70 | 1018.3 |
| 20260504003340 | 49 | 173 | 0.0 | 0.0 | 0.00 | 0.00 | 0.00 | 68 | 1017.9 |
| 20260504002840 | 50 | 235 | 0.0 | 0.0 | 0.00 | 0.00 | 0.00 | 70 | 1017.9 |
| 20260504002339 | 50 | 55 | 0.0 | 1.0 | 0.00 | 0.00 | 0.00 | 67 | 1017.9 |
| 20260504001839 | 50 | 154 | 0.0 | 0.0 | 0.00 | 0.00 | 0.00 | 67 | 1017.9 |
| 20260504001339 | 51 | 310 | 0.0 | 2.0 | 0.00 | 0.00 | 0.00 | 66 | 1017.6 |
| 20260504000840 | 51 | 253 | 0.0 | 2.0 | 0.00 | 0.00 | 0.00 | 67 | 1017.9 |
| 20260504000339 | 51 | 162 | 0.0 | 1.0 | 0.00 | 0.00 | 0.00 | 65 | 1018.3 |
| 20260503235839 | 52 | 322 | 0.0 | 0.0 | 0.00 | 0.00 | 0.00 | 65 | 1018.3 |
| 20260503235339 | 52 | 129 | 0.0 | 1.0 | 0.00 | 0.00 | 0.00 | 65 | 1018.3 |
| 20260503234839 | 52 | 135 | 0.0 | 1.0 | 0.00 | 0.00 | 0.00 | 63 | 1017.9 |
| 20260503234340 | 53 | 236 | 0.0 | 2.0 | 0.00 | 0.00 | 0.00 | 60 | 1017.9 |
| 20260503233841 | 53 | 44 | 0.0 | 0.0 | 0.00 | 0.00 | 0.00 | 59 | 1017.9 |
| 20260503233340 | 53 | 135 | 0.0 | 2.0 | 0.00 | 0.00 | 0.00 | 62 | 1017.9 |
| 20260503232839 | 54 | 37 | 0.0 | 2.0 | 0.00 | 0.00 | 0.00 | 62 | 1017.6 |
| 20260503232339 | 54 | 44 | 0.0 | 1.0 | 0.00 | 0.00 | 0.00 | 59 | 1017.9 |
| 20260503231840 | 54 | 97 | 0.0 | 1.0 | 0.00 | 0.00 | 0.00 | 57 | 1017.6 |
| 20260503231339 | 55 | 299 | 0.0 | 1.0 | 0.00 | 0.00 | 0.00 | 58 | 1017.9 |
| 20260503230839 | 56 | 214 | 0.0 | 0.0 | 0.00 | 0.00 | 0.00 | 55 | 1017.9 |
| 20260503230340 | 56 | 166 | 0.0 | 1.0 | 0.00 | 0.00 | 0.00 | 52 | 1017.9 |
| 20260503225839 | 57 | 192 | 1.0 | 2.0 | 0.00 | 0.00 | 0.00 | 52 | 1017.9 |
| 20260503225339 | 58 | 53 | 1.0 | 3.0 | 0.00 | 0.00 | 0.00 | 47 | 1017.9 |
| 20260503224840 | 58 | 183 | 0.0 | 3.0 | 0.00 | 0.00 | 0.00 | 47 | 1018.3 |
| 20260503224339 | 59 | 213 | 3.0 | 3.0 | 0.00 | 0.00 | 0.00 | 43 | 1018.3 |
| 20260503223840 | 60 | 53 | 0.0 | 2.0 | 0.00 | 0.00 | 0.00 | 42 | 1018.6 |
| 20260503223340 | 60 | 176 | 0.0 | 5.0 | 0.00 | 0.00 | 0.00 | 34 | 1018.3 |
| 20260503222839 | 60 | 233 | 2.0 | 4.0 | 0.00 | 0.00 | 0.00 | 42 | 1018.6 |
| 20260503222340 | 60 | 244 | 2.0 | 3.0 | 0.00 | 0.00 | 0.00 | 43 | 1018.6 |
| 20260503221840 | 61 | 269 | 0.0 | 1.0 | 0.00 | 0.00 | 0.00 | 38 | 1018.6 |
| 20260503221340 | 62 | 245 | 2.0 | 6.0 | 0.00 | 0.00 | 0.00 | 31 | 1018.6 |
| 20260503220839 | 63 | 349 | 1.0 | 2.0 | 0.00 | 0.00 | 0.00 | 34 | 1019.0 |
| 20260503220340 | 63 | 246 | 5.0 | 9.0 | 0.00 | 0.00 | 0.00 | 31 | 1019.0 |
| 20260503215840 | 63 | 227 | 4.0 | 6.0 | 0.00 | 0.00 | 0.00 | 32 | 1019.0 |
| 20260503215340 | 62 | 253 | 3.0 | 10.0 | 0.00 | 0.00 | 0.00 | 30 | 1019.0 |
| 20260503214840 | 63 | 258 | 2.0 | 3.0 | 0.00 | 0.00 | 0.00 | 31 | 1019.0 |
| 20260503214340 | 63 | 261 | 2.0 | 4.0 | 0.00 | 0.00 | 0.00 | 33 | 1019.0 |
| 20260503213839 | 63 | 242 | 5.0 | 7.0 | 0.00 | 0.00 | 0.00 | 30 | 1019.0 |
| 20260503213340 | 64 | 265 | 2.0 | 4.0 | 0.00 | 0.00 | 0.00 | 31 | 1019.0 |
| 20260503212839 | 65 | 243 | 1.0 | 2.0 | 0.00 | 0.00 | 0.00 | 28 | 1019.0 |
| 20260503212339 | 65 | 242 | 2.0 | 3.0 | 0.00 | 0.00 | 0.00 | 28 | 1019.0 |
| 20260503211839 | 65 | 157 | 0.0 | 3.0 | 0.00 | 0.00 | 0.00 | 29 | 1019.3 |
| 20260503211339 | 64 | 239 | 6.0 | 7.0 | 0.00 | 0.00 | 0.00 | 29 | 1019.3 |
| 20260503210839 | 65 | 247 | 6.0 | 6.0 | 0.00 | 0.00 | 0.00 | 31 | 1019.6 |
| 20260503210339 | 64 | 261 | 2.0 | 4.0 | 0.00 | 0.00 | 0.00 | 28 | 1019.6 |
| 20260503205839 | 64 | 220 | 2.0 | 3.0 | 0.00 | 0.00 | 0.00 | 28 | 1020.0 |
| 20260503205339 | 64 | 239 | 2.0 | 4.0 | 0.00 | 0.00 | 0.00 | 30 | 1019.6 |
| 20260503204839 | 64 | 22 | 1.0 | 4.0 | 0.00 | 0.00 | 0.00 | 27 | 1019.6 |
| 20260503204341 | 65 | 247 | 5.0 | 9.0 | 0.00 | 0.00 | 0.00 | 27 | 1020.0 |
| 20260503203839 | 65 | 228 | 2.0 | 2.0 | 0.00 | 0.00 | 0.00 | 27 | 1020.0 |
| 20260503203339 | 65 | 128 | 2.0 | 6.0 | 0.00 | 0.00 | 0.00 | 27 | 1020.0 |
| 20260503202839 | 64 | 281 | 0.0 | 3.0 | 0.00 | 0.00 | 0.00 | 27 | 1020.0 |
| 20260503202339 | 65 | 101 | 2.0 | 2.0 | 0.00 | 0.00 | 0.00 | 26 | 1020.3 |
| 20260503201840 | 63 | 234 | 3.0 | 4.0 | 0.00 | 0.00 | 0.00 | 28 | 1020.3 |
| 20260503201340 | 64 | 355 | 1.0 | 3.0 | 0.00 | 0.00 | 0.00 | 26 | 1020.0 |
| 20260503200839 | 63 | 8 | 0.0 | 2.0 | 0.00 | 0.00 | 0.00 | 27 | 1020.7 |
| 20260503200339 | 64 | 25 | 1.0 | 5.0 | 0.00 | 0.00 | 0.00 | 27 | 1020.7 |
| 20260503195839 | 64 | 250 | 4.0 | 6.0 | 0.00 | 0.00 | 0.00 | 28 | 1021.0 |
| 20260503195339 | 64 | 264 | 4.0 | 8.0 | 0.00 | 0.00 | 0.00 | 27 | 1021.0 |
| 20260503194840 | 64 | 84 | 3.0 | 9.0 | 0.00 | 0.00 | 0.00 | 29 | 1021.0 |
| 20260503194339 | 64 | 229 | 1.0 | 3.0 | 0.00 | 0.00 | 0.00 | 33 | 1021.0 |
| 20260503193839 | 64 | 59 | 2.0 | 5.0 | 0.00 | 0.00 | 0.00 | 28 | 1021.3 |
| 20260503193339 | 64 | 150 | 0.0 | 4.0 | 0.00 | 0.00 | 0.00 | 29 | 1021.3 |
| 20260503192839 | 63 | 334 | 0.0 | 3.0 | 0.00 | 0.00 | 0.00 | 33 | 1021.7 |
| 20260503192339 | 62 | 235 | 5.0 | 5.0 | 0.00 | 0.00 | 0.00 | 30 | 1021.3 |
| 20260503191839 | 62 | 85 | 5.0 | 8.0 | 0.00 | 0.00 | 0.00 | 29 | 1022.0 |
| 20260503191339 | 62 | 179 | 2.0 | 4.0 | 0.00 | 0.00 | 0.00 | 30 | 1022.0 |
| 20260503190840 | 62 | 245 | 6.0 | 7.0 | 0.00 | 0.00 | 0.00 | 31 | 1022.0 |
| 20260503190339 | 62 | 302 | 1.0 | 4.0 | 0.00 | 0.00 | 0.00 | 29 | 1022.0 |
| 20260503185839 | 62 | 212 | 1.0 | 7.0 | 0.00 | 0.00 | 0.00 | 30 | 1022.4 |
| 20260503185340 | 60 | 94 | 0.0 | 3.0 | 0.00 | 0.00 | 0.00 | 31 | 1022.4 |
| 20260503184840 | 61 | 75 | 1.0 | 3.0 | 0.00 | 0.00 | 0.00 | 29 | 1022.7 |
| 20260503184339 | 61 | 76 | 2.0 | 5.0 | 0.00 | 0.00 | 0.00 | 31 | 1022.4 |
| 20260503183840 | 61 | 330 | 1.0 | 5.0 | 0.00 | 0.00 | 0.00 | 31 | 1022.7 |
| 20260503183339 | 61 | 97 | 4.0 | 5.0 | 0.00 | 0.00 | 0.00 | 33 | 1022.7 |
| 20260503182839 | 60 | 219 | 5.0 | 5.0 | 0.00 | 0.00 | 0.00 | 32 | 1022.7 |
| 20260503182341 | 60 | 65 | 2.0 | 4.0 | 0.00 | 0.00 | 0.00 | 32 | 1022.7 |
| 20260503181840 | 61 | 221 | 2.0 | 7.0 | 0.00 | 0.00 | 0.00 | 33 | 1023.0 |
| 20260503181340 | 60 | 141 | 1.0 | 4.0 | 0.00 | 0.00 | 0.00 | 35 | 1022.7 |
| 20260503180840 | 59 | 215 | 3.0 | 5.0 | 0.00 | 0.00 | 0.00 | 35 | 1023.4 |
| 20260503180339 | 60 | 235 | 7.0 | 9.0 | 0.00 | 0.00 | 0.00 | 34 | 1023.0 |
| 20260503175839 | 59 | 244 | 3.0 | 3.0 | 0.00 | 0.00 | 0.00 | 34 | 1023.0 |
| 20260503175340 | 59 | 72 | 3.0 | 4.0 | 0.00 | 0.00 | 0.00 | 33 | 1023.4 |
| 20260503174840 | 58 | 223 | 2.0 | 5.0 | 0.00 | 0.00 | 0.00 | 35 | 1023.4 |
| 20260503174340 | 59 | 226 | 4.0 | 7.0 | 0.00 | 0.00 | 0.00 | 33 | 1023.4 |
| 20260503173840 | 60 | 334 | 2.0 | 4.0 | 0.00 | 0.00 | 0.00 | 37 | 1023.4 |
| 20260503173340 | 60 | 219 | 2.0 | 5.0 | 0.00 | 0.00 | 0.00 | 36 | 1023.4 |
| 20260503172840 | 58 | 156 | 0.0 | 5.0 | 0.00 | 0.00 | 0.00 | 37 | 1023.4 |
| 20260503172339 | 58 | 246 | 4.0 | 11.0 | 0.00 | 0.00 | 0.00 | 34 | 1023.7 |
| 20260503171839 | 59 | 151 | 3.0 | 7.0 | 0.00 | 0.00 | 0.00 | 32 | 1023.7 |